Location: McFarlands Corners
(41.4117°N, 81.3382°W)
Time: 05:25:14
(UTC+00:00)

A-11 Canister half - Pass Details

Date: 23 February 2026
Orbit: 1524 x 1683 km, 47.3° (Epoch: 14 March)

Event Time Altitude Azimuth Distance (km) Brightness Sun altitude
Rises 03:46:24 0° 296° (WNW) 4,676 12.1 -49.9°
Reaches altitude 10° 03:49:44 10° 288° (WNW) 3,694 11.4 -50.4°
Enters shadow 03:53:23 24° 271° (W) 2,782 10.5 -50.8°
